[[{"header":{"parameterUnit":"m.s-1","parameterCategory":1,"la1":30.2991,"la2":30.254,"lo1":-89.0895,"lo2":-89.0444,"dy":0.0017,"dx":0.0017,"nx":28,"ny":28,"refTime":"2025-01-06T09:00:00:Z","depth":0,"parameterNumber":2,"parameterNumberName":"U-component_of_WINDS"},"data":[0,0,0,0,0,0,0,0,0,0,0,0,0,0,0,0,0,0,0,0,0,0,0,0,0,0,0,0,0,0,0,0,0,0,0,0,0,0,0,0,0,0,0,0,0,0,0,0,0,0,0,0,0,0,0,0,0,0,5.6946,5.6946,0,5.6993,5.6994,5.6994,5.6927,5.6925,5.6922,5.692,5.6966,5.6969,5.6972,0,0,0,0,0,0,0,0,0,0,0,0,0,5.6795,5.6798,5.6945,5.6946,5.6947,5.6993,5.6994,5.6994,5.6927,5.6925,5.6922,5.6919,5.6965,5.6969,5.6973,0,0,0,0,0,0,0,0,0,0,0,0,0,5.6854,5.68,5.6945,5.6919,5.6917,5.6993,5.6994,5.6995,5.6928,5.6924,5.6921,5.6918,5.6963,5.6968,5.6973,5.7077,0,0,5.6989,5.6991,0,0,0,0,0,0,0,0,5.685,5.6859,5.6922,5.6921,5.6919,5.6951,5.6958,5.7022,5.6929,5.6924,5.692,5.6916,5.6963,5.6968,5.6985,5.7079,5.7081,5.699,5.6993,5.6995,5.6996,0,0,0,0,0,0,0,5.6846,5.6857,5.6964,5.6923,5.6921,5.6904,5.6909,5.6969,5.6963,5.6924,5.6919,5.6926,5.6962,5.698,5.6986,5.7081,5.6989,5.6994,5.6997,5.6999,5.7265,5.7269,0,0,0,0,0,0,5.6846,5.6854,5.6963,5.6966,5.6875,5.691,5.6915,5.6944,5.6962,5.6961,5.6929,5.6923,5.6973,5.698,5.6987,5.711,5.6995,5.7,5.7003,5.7261,5.7266,5.727,0,0,0,0,0,0,5.6843,5.6856,5.6961,5.6909,5.6921,5.6916,5.695,5.6947,5.6965,5.6966,5.6964,5.6949,5.6971,5.698,5.7056,5.7111,5.7002,5.7007,5.7256,5.7262,5.7268,5.7357,0,0,0,0,0,0,5.6839,5.6855,5.6895,5.691,5.6924,5.7029,5.6953,5.695,5.6975,5.6967,5.6984,5.6984,5.6968,5.7048,5.7061,5.7116,5.7011,5.7251,5.7259,5.7266,5.7349,5.7366,5.738,0,0,0,0,0,5.6834,5.6917,5.6897,5.691,5.6973,5.7032,5.704,5.7022,5.6979,5.7019,5.702,5.6983,5.7103,5.7057,5.707,5.7128,5.7248,5.7257,5.7265,5.7343,5.7362,5.7379,0,0,0,0,0,0,5.6906,5.6918,5.6896,5.6987,5.7009,5.7021,5.707,5.7043,5.7077,5.7068,5.7043,5.7048,5.713,5.7136,5.7084,5.723,5.7168,5.718,5.7222,5.7241,5.7256,5.7252,5.7015,0,0,0,0,0,5.6932,5.6981,5.6988,5.7068,5.708,5.7074,5.7099,5.7083,5.7105,5.7114,5.712,5.7142,5.7185,5.7213,5.7253,5.7351,5.7354,5.7397,5.7412,5.7425,5.7435,5.7489,5.7509,5.7299,5.7299,5.7299,0,0,5.6987,5.7,5.7032,5.7083,5.7098,5.7149,5.7082,5.7137,5.7174,5.7122,5.7194,5.7201,5.7223,5.7312,5.7351,5.732,5.7494,5.7436,5.7446,5.7449,5.75,5.752,5.7538,5.7305,5.7304,5.7303,0,0,5.7113,5.7128,5.7196,5.7214,5.724,5.7235,5.7252,5.7269,5.7271,5.7344,5.7307,5.7351,5.7424,5.7443,5.7462,5.76,5.7568,5.7614,5.7692,5.7745,5.7762,5.7776,5.7826,5.7844,5.7624,5.7625,5.7625,0,5.7178,5.7253,5.7234,5.7294,5.7318,5.7275,5.7345,5.7363,5.7399,5.7417,5.7382,5.7476,5.7488,5.7581,5.7616,5.7632,5.7651,5.7611,5.7761,5.7775,5.7788,5.7836,5.7855,5.763,5.7629,5.7629,5.7628,0,5.7332,5.7385,5.7438,5.7477,5.7506,5.7571,5.7562,5.7594,5.7577,5.7577,5.7653,5.7667,5.771,5.7731,5.7713,5.7822,5.7802,5.7765,5.7702,5.7814,5.7858,5.7876,5.7638,5.7636,5.7634,5.7633,0,0,5.7502,5.7533,5.7552,5.7571,5.7597,5.7638,5.7701,5.7744,5.7773,5.7801,5.7853,5.7919,5.7886,5.7908,5.7892,5.7939,5.8049,5.7896,5.7896,5.7925,5.8172,5.8199,5.8221,5.8029,5.8033,5.8035,5.817,0,5.7629,5.7739,5.7726,5.7831,5.788,5.7842,5.7897,5.792,5.7922,5.7964,5.7966,5.8014,5.7965,5.7979,5.8023,5.8027,5.8099,5.8017,5.8078,5.808,5.8073,5.8244,5.8273,5.8399,5.8187,5.819,5.8192,0,5.779,5.7827,5.7938,5.796,5.798,5.803,5.807,5.8111,5.8136,5.8135,5.8162,5.8139,5.8203,5.8141,5.8228,5.8173,5.8198,5.8204,5.8208,5.8212,5.8142,5.8253,5.8438,5.8458,5.8219,5.8217,5.8215,0,5.7905,5.7981,5.8058,5.8074,5.8102,5.8138,5.8151,5.8173,5.8201,5.8236,5.8254,5.8296,5.8318,5.8351,5.8341,5.8296,5.8432,5.8368,5.8432,5.8433,5.8462,5.846,5.8654,5.8478,5.8478,5.8477,5.8477,0,5.8047,5.8117,5.811,5.8157,5.8234,5.8219,5.8296,5.8304,5.8325,5.8373,5.8342,5.8388,5.8372,5.8417,5.8409,5.8484,5.8495,5.8495,5.8492,5.8498,5.8498,5.8513,5.8504,5.8482,5.8481,5.848,5.848,0,5.8187,5.8185,5.8266,5.8287,5.8294,5.835,5.8367,5.8412,5.8413,5.8475,5.8488,5.849,5.8542,5.8535,5.8592,5.8587,5.8681,5.8667,5.8673,5.867,5.8735,5.8729,5.8945,5.8973,5.8779,5.8781,5.8782,0,5.8278,5.8331,5.8358,5.8389,5.8406,5.8455,5.8485,5.8472,5.8504,5.8539,5.858,5.863,5.8669,5.8754,5.8759,5.8804,5.8791,5.8864,5.8797,5.8802,5.8793,5.879,5.8795,5.8876,5.8879,5.888,5.8882,0,5.844,5.8437,5.8481,5.8526,5.8563,5.8597,5.8627,5.8655,5.8645,5.8683,5.8737,5.8767,5.8828,5.8877,5.892,5.8933,5.8907,5.8903,5.8921,5.8926,5.8928,5.8929,5.8709,5.8898,5.8896,5.8895,5.8894,5.8894,5.8558,5.8605,5.8632,5.8683,5.8705,5.8736,5.878,5.8788,5.8833,5.8882,5.8872,5.8933,5.8959,5.9014,5.9032,5.9079,5.9053,5.9078,5.9084,5.909,5.9098,5.8921,5.9087,5.9087,5.9086,5.9086,5.9085,0,5.8719,5.8736,5.8783,5.8829,5.8869,5.8843,5.8877,5.8912,5.8967,5.8994,5.9034,5.9097,5.9146,5.9158,5.9205,5.9241,5.923,5.9254,5.9251,5.9254,5.9119,5.91,5.9262,5.9262,5.9262,5.9262,5.9262,5.9262,5.8808,5.8886,5.8887,5.8976,5.8992,5.9053,5.9074,5.9103,5.9125,5.9197,5.9239,5.9246,5.9268,5.9317,5.9361,5.9363,5.9382,5.9411,5.9408,5.9281,5.9263,5.9247,5.9228,5.9415,5.9415,5.9539,5.954,5.9541]},{"header":{"parameterUnit":"m.s-1","parameterCategory":1,"la1":30.2991,"la2":30.254,"lo1":-89.0895,"lo2":-89.0444,"dy":0.0017,"dx":0.0017,"nx":28,"ny":28,"refTime":"2025-01-06T09:00:00:Z","depth":0,"parameterNumber":3,"parameterNumberName":"V-component_of_WINDS"},"data":[0,0,0,0,0,0,0,0,0,0,0,0,0,0,0,0,0,0,0,0,0,0,0,0,0,0,0,0,0,0,0,0,0,0,0,0,0,0,0,0,0,0,0,0,0,0,0,0,0,0,0,0,0,0,0,0,0,0,-8.335,-8.3352,0,-8.3516,-8.3518,-8.352,-8.3486,-8.3483,-8.348,-8.3477,-8.364,-8.3647,-8.3654,0,0,0,0,0,0,0,0,0,0,0,0,0,-8.3,-8.3006,-8.335,-8.3352,-8.3354,-8.3516,-8.3518,-8.352,-8.3486,-8.3483,-8.3479,-8.3476,-8.3638,-8.3646,-8.3655,0,0,0,0,0,0,0,0,0,0,0,0,0,-8.3157,-8.3008,-8.335,-8.3357,-8.3359,-8.3515,-8.3518,-8.3521,-8.3487,-8.3483,-8.3478,-8.3474,-8.3635,-8.3645,-8.3656,-8.3813,0,0,-8.3689,-8.3694,0,0,0,0,0,0,0,0,-8.3148,-8.317,-8.3354,-8.3357,-8.336,-8.3476,-8.3454,-8.3618,-8.3488,-8.3438,-8.3477,-8.3472,-8.3589,-8.3603,-8.3644,-8.3821,-8.3828,-8.369,-8.3696,-8.3701,-8.3704,0,0,0,0,0,0,0,-8.3137,-8.3163,-8.3415,-8.3356,-8.336,-8.335,-8.3368,-8.3485,-8.3537,-8.3442,-8.344,-8.3461,-8.3589,-8.3634,-8.3647,-8.383,-8.369,-8.3699,-8.3706,-8.371,-8.4145,-8.415,0,0,0,0,0,0,-8.3124,-8.3154,-8.341,-8.342,-8.3241,-8.336,-8.338,-8.3443,-8.3535,-8.3545,-8.3464,-8.3459,-8.3617,-8.3635,-8.3653,-8.3844,-8.3701,-8.3711,-8.3717,-8.414,-8.4147,-8.4152,0,0,0,0,0,0,-8.3117,-8.3148,-8.3403,-8.3287,-8.3319,-8.3371,-8.3442,-8.3448,-8.3493,-8.3552,-8.3561,-8.3501,-8.3615,-8.3638,-8.3774,-8.3849,-8.3716,-8.3726,-8.4134,-8.4142,-8.4149,-8.4226,0,0,0,0,0,0,-8.3107,-8.3145,-8.3206,-8.3288,-8.3325,-8.3524,-8.3447,-8.3455,-8.3512,-8.3506,-8.3588,-8.3597,-8.3613,-8.3759,-8.3785,-8.3861,-8.3734,-8.4128,-8.4138,-8.4147,-8.4217,-8.4235,-8.4251,0,0,0,0,0,-8.3095,-8.322,-8.321,-8.3241,-8.3403,-8.3528,-8.3549,-8.3566,-8.3518,-8.358,-8.3618,-8.3595,-8.3837,-8.3773,-8.3802,-8.3883,-8.4123,-8.4135,-8.4146,-8.4209,-8.4232,-8.4251,0,0,0,0,0,0,-8.3142,-8.323,-8.322,-8.3376,-8.3445,-8.3522,-8.36,-8.3589,-8.3671,-8.3661,-8.3677,-8.3696,-8.3835,-8.3873,-8.38,-8.404,-8.3973,-8.3991,-8.4011,-8.4033,-8.4049,-8.4037,-8.3743,0,0,0,0,0,-8.3171,-8.3267,-8.3338,-8.3468,-8.3504,-8.3546,-8.3601,-8.3609,-8.368,-8.3709,-8.3757,-8.3826,-8.3917,-8.3977,-8.4064,-8.4223,-8.424,-8.4293,-8.431,-8.4323,-8.4339,-8.4426,-8.445,-8.419,-8.419,-8.419,0,0,-8.3231,-8.3291,-8.335,-8.348,-8.3534,-8.3632,-8.3571,-8.3677,-8.3749,-8.3724,-8.3857,-8.3895,-8.3972,-8.4121,-8.4189,-8.4156,-8.4415,-8.4338,-8.4349,-8.4356,-8.444,-8.4465,-8.4487,-8.4198,-8.4196,-8.4195,0,0,-8.339,-8.3446,-8.3561,-8.3618,-8.3702,-8.373,-8.3758,-8.3838,-8.3863,-8.3997,-8.3981,-8.4066,-8.4224,-8.428,-8.4329,-8.4513,-8.4495,-8.4541,-8.4629,-8.4715,-8.4735,-8.4753,-8.4819,-8.4843,-8.4556,-8.4556,-8.4556,0,-8.3453,-8.3602,-8.3621,-8.373,-8.3787,-8.3772,-8.3889,-8.3942,-8.405,-8.4089,-8.4052,-8.4251,-8.4302,-8.4464,-8.4509,-8.4549,-8.4581,-8.4531,-8.4731,-8.475,-8.4767,-8.483,-8.4854,-8.4561,-8.4561,-8.456,-8.456,0,-8.3676,-8.378,-8.3862,-8.397,-8.4037,-8.4149,-8.4183,-8.4249,-8.4251,-8.4282,-8.4419,-8.448,-8.4581,-8.462,-8.4622,-8.4783,-8.476,-8.4727,-8.4659,-8.4796,-8.4856,-8.488,-8.4569,-8.4567,-8.4565,-8.4564,0,0,-8.3868,-8.3987,-8.4017,-8.4067,-8.416,-8.424,-8.4351,-8.4452,-8.4507,-8.4583,-8.4676,-8.4811,-8.4782,-8.4838,-8.4846,-8.4921,-8.5063,-8.4879,-8.4881,-8.4911,-8.5245,-8.5269,-8.5297,-8.5052,-8.5057,-8.5061,-8.5239,0,-8.4036,-8.4235,-8.4256,-8.4433,-8.4529,-8.4517,-8.4614,-8.4681,-8.4714,-8.4799,-8.4834,-8.493,-8.4884,-8.4918,-8.4991,-8.503,-8.5131,-8.5018,-8.5138,-8.5142,-8.5119,-8.5328,-8.5354,-8.5519,-8.5262,-8.5266,-8.5269,0,-8.4259,-8.4344,-8.4531,-8.4613,-8.4654,-8.4741,-8.4836,-8.4918,-8.4994,-8.5012,-8.5077,-8.5076,-8.519,-8.5119,-8.5275,-8.5198,-8.5249,-8.5276,-8.5282,-8.5294,-8.5213,-8.5345,-8.5571,-8.5596,-8.5305,-8.5302,-8.53,0,-8.438,-8.4542,-8.4675,-8.4718,-8.4816,-8.4878,-8.4922,-8.4993,-8.5053,-8.5136,-8.5175,-8.5268,-8.5319,-8.5391,-8.5416,-8.5362,-8.5571,-8.5502,-8.5589,-8.5589,-8.5633,-8.563,-8.5871,-8.5666,-8.5666,-8.5665,-8.5665,0,-8.4566,-8.4681,-8.4732,-8.4814,-8.4942,-8.4965,-8.5091,-8.5132,-8.5196,-8.5285,-8.5279,-8.5362,-8.539,-8.5477,-8.5496,-8.5623,-8.5646,-8.5664,-8.5667,-8.5664,-8.5662,-8.5697,-8.5686,-8.5672,-8.567,-8.5669,-8.5668,0,-8.4723,-8.4762,-8.4907,-8.499,-8.5013,-8.5104,-8.5174,-8.5253,-8.5285,-8.5398,-8.5426,-8.5476,-8.5579,-8.5611,-8.5733,-8.5746,-8.5895,-8.5889,-8.587,-8.5871,-8.5956,-8.5948,-8.6228,-8.6266,-8.6036,-8.6038,-8.604,0,-8.4839,-8.4928,-8.5022,-8.5082,-8.5129,-8.5226,-8.5288,-8.5314,-8.5379,-8.5473,-8.554,-8.5643,-8.5726,-8.5891,-8.5937,-8.6031,-8.6027,-8.6119,-8.6041,-8.6035,-8.6029,-8.6023,-8.6032,-8.6133,-8.6135,-8.6137,-8.6139,0,-8.5041,-8.5056,-8.5147,-8.5246,-8.5321,-8.5399,-8.5474,-8.5523,-8.556,-8.5632,-8.5739,-8.5804,-8.5932,-8.6033,-8.613,-8.6172,-8.6162,-8.6163,-8.6189,-8.6186,-8.6172,-8.6181,-8.591,-8.6156,-8.6155,-8.6153,-8.6152,-8.6152,-8.5181,-8.526,-8.5339,-8.5441,-8.5501,-8.5572,-8.5651,-8.5694,-8.5784,-8.5892,-8.5902,-8.6017,-8.6091,-8.622,-8.6268,-8.6358,-8.6331,-8.6367,-8.6377,-8.6385,-8.6392,-8.6159,-8.6375,-8.6375,-8.6375,-8.6374,-8.6374,0,-8.5383,-8.5434,-8.5527,-8.5634,-8.5714,-8.5701,-8.5783,-8.5851,-8.5953,-8.6025,-8.6108,-8.6231,-8.633,-8.6385,-8.6484,-8.6545,-8.6543,-8.657,-8.6565,-8.6576,-8.641,-8.6379,-8.657,-8.657,-8.657,-8.657,-8.657,-8.657,-8.5497,-8.5631,-8.5656,-8.5819,-8.5868,-8.5983,-8.6032,-8.6097,-8.6155,-8.6293,-8.6377,-8.6413,-8.6478,-8.6582,-8.6672,-8.6686,-8.6722,-8.6753,-8.6763,-8.6607,-8.6587,-8.6568,-8.6539,-8.676,-8.6761,-8.6921,-8.6922,-8.6924]}]]